Regional Weather Roundup
Issued by NWS Jackson, KY

Home | Current Version | Previous Version | Text Only | Print | Product List | Glossary On
Versions: 1 2 3 4 5 6 7 8 9 10 11 12 13 14 15 16 17 18 19 20 21 22 23 24 25 26 27 28 29 30 31 32 33 34 35 36 37 38 39 40 41 42 43 44 45 46 47 48 49 50
000
ASUS43 KJKL 300419
RWRJKL

EAST KENTUCKY HOURLY WEATHER ROUNDUP
NATIONAL WEATHER SERVICE JACKSON KY
1100 PM EST THU JAN 29 2015

NOTE: "FAIR" INDICATES FEW OR NO CLOUDS BELOW 12,000 FEET WITH
NO SIGNIFICANT WEATHER AND/OR OBSTRUCTIONS TO VISIBILITY.

* THESE REPORTS ARE NOT UNDER NWS QUALITY CONTROL AND MAY NOT
  REPORT WEATHER SUCH AS PRECIPITATION AND FOG.

KYZ079-080-083-085-087-088-110-112-115-119-120-300500
...EASTERN KENTUCKY...

CITY           SKY/WX    TMP DP  RH WIND       PRES   REMARKS
JACKSON        CLOUDY    35  29  78 W12G20    30.15R WCI  27
LONDON         CLOUDY    38  29  70 NW13      30.19R WCI  30
SOMERSET*      CLOUDY    36  30  80 NW12      30.25R WCI  27
MONTICELLO*    CLOUDY    37  31  79 NW16G23   30.27R WCI  27
MIDDLESBORO*   CLOUDY    38  33  80 NW10G21   30.18R WCI  31
HARLAN APT*    CLOUDY    36  32  87 NW13G24   30.16R WCI  27
BLACK MTN*       N/A     28  28 100 N9          N/A  WCI  20
PIKEVILLE APT* CLOUDY    36  30  80 W15G22    30.11R WCI  26
BIG SANDY*     CLOUDY    37  32  82 NW7G20    30.13R WCI  31
MOREHEAD APT*  CLOUDY    32  32 100 NW8G14    30.20R FOG     WCI  25
ASHLAND*       MOCLDY    36  34  93 NW10      30.13R WCI  28
$$

KYZ035-036-041-042-044-050-067-078-099-300500
...CENTRAL KENTUCKY...

CITY           SKY/WX    TMP DP  RH WIND       PRES   REMARKS
MT STERLING*   CLOUDY    32  32 100 NW8G17    30.20R WCI  25
FLEMING/MASON* CLOUDY    33  30  89 W13       30.18R WCI  24
DANVILLE*      CLOUDY    34  32  93 NW10      30.24R WCI  26
RICHMOND*      CLOUDY    34  28  80 NW13G25   30.21R WCI  25
LEXINGTON      CLOUDY    33  31  92 NW9       30.22R FOG     WCI  25
FRANKFORT      CLOUDY    33  30  88 NW8       30.22R WCI  26
$$

KYZ091>093-OHZ055-061-077-WVZ005-015-034-035-042-300500
...SOUTHERN OHIO/WEST VIRGINIA...

CITY           SKY/WX    TMP DP  RH WIND       PRES   REMARKS
COVINGTON      CLOUDY    34  29  82 NW13      30.18R WCI  25
COLUMBUS       LGT SNOW  32  30  92 W10       30.07R FOG     WCI  24
DAYTON         CLOUDY    33  30  88 NW15      30.13R WCI  23
WILMINGTON     FRZ RAIN  32  29  88 NW15      30.12R FOG     WCI  22
HUNTINGTON     CLOUDY    36  30  79 W7G16     30.12R WCI  30
CHARLESTON     LGT RAIN  38  30  73 W13G22    30.07R WCI  30
PINEVILLE*     MIX PCPN  40  38  93 MISG      30.08R
BECKLEY        LGT RAIN  37  33  85 W12G22    29.98R FOG     WCI  29
BLUEFIELD      LGT RAIN  39  34  82 NW16G28   29.98R WCI  30
$$

VAZ002-007-008-TNZ017-027-036-066-071-300500
...SOUTHWEST VIRGINIA/EAST TENNESSEE...

CITY           SKY/WX    TMP DP  RH WIND       PRES   REMARKS
WISE*          LGT RAIN  34  34 100 NW5       30.07R WCI  30
JONESVILLE*    CLOUDY    39  36  87 W6        30.14R WCI  35
ABINGDON*      CLOUDY    45  38  77 N12G21    30.02R
BRISTOL        CLOUDY    47  39  74 NW12G23   30.04R
KNOXVILLE      LGT RAIN  45  36  70 W15G26    30.15R
OAK RIDGE      CLOUDY    45  35  68 NW5       30.18R
CROSSVILLE     CLOUDY    37  29  72 NW14G22   30.21R WCI  28
NASHVILLE      CLOUDY    41  32  70 NW14G20   30.32R
$$

...KEY TO REMARKS...
VSB - VISIBILITY IN MILES
WCI - WIND CHILL INDEX
HX  - HEAT INDEX

$$



USA.gov is the U.S. government's official web portal to all federal, state and local government web resources and services.